NETSAT-1

Last updated on Mon Sep 21 2026 00:03:45 GMT+0000 (Coordinated Universal Time)

1 46506U 20068W 26263.46600991 .00009241 00000+0 26109-3 0 9997 2 46506 97.8792 270.8360 0005720 50.1616 310.0129 15.36587654329925
UTC large
Height (km)
Speed (km/s)
/
Latitude / Longitude
Inclination (degrees)
Orbital Period (minutes)
Azimuth
Elevation
Range (km)
Doppler Factor

Next 0 passes for location: London (51.5072 / 0.1276)

No passes found over London.
NETSAT-1